TimeAKST,TemperatureF,Dew PointF,Humidity,Sea Level PressureIn,VisibilityMPH,Wind Direction,Wind SpeedMPH,Gust SpeedMPH,PrecipitationIn,Events,Conditions,WindDirDegrees,DateUTC
12:16 AM,1.4,-5.8,72,29.58,10.0,East,6.9,-,N/A,,Clear,80,2012-11-30 09:16:00
12:36 AM,-0.4,-5.8,78,29.58,10.0,East,5.8,-,N/A,,Clear,80,2012-11-30 09:36:00
12:56 AM,-0.4,-5.8,78,29.59,10.0,East,4.6,-,N/A,,Clear,90,2012-11-30 09:56:00
1:16 AM,-0.4,-5.8,78,29.59,10.0,ENE,5.8,-,N/A,,Clear,70,2012-11-30 10:16:00
1:36 AM,-2.2,-9.4,71,29.60,10.0,East,3.5,-,N/A,,Clear,100,2012-11-30 10:36:00
1:56 AM,-2.2,-7.6,78,29.60,10.0,East,4.6,-,N/A,,Clear,90,2012-11-30 10:56:00
2:16 AM,-0.4,-5.8,78,29.60,10.0,East,6.9,-,N/A,,Clear,100,2012-11-30 11:16:00
2:36 AM,1.4,-5.8,72,29.60,10.0,East,3.5,-,N/A,,Clear,100,2012-11-30 11:36:00
2:56 AM,1.4,-4.0,78,29.61,10.0,East,3.5,-,N/A,,Clear,90,2012-11-30 11:56:00
3:16 AM,1.4,-5.8,72,29.61,10.0,ENE,5.8,-,N/A,,Clear,70,2012-11-30 12:16:00
3:36 AM,-2.2,-9.4,71,29.61,10.0,Calm,Calm,-,N/A,,Clear,0,2012-11-30 12:36:00
3:56 AM,-4.0,-9.4,78,29.61,10.0,East,5.8,-,N/A,,Clear,90,2012-11-30 12:56:00
4:16 AM,-5.8,-11.2,77,29.61,10.0,Calm,Calm,-,N/A,,Clear,0,2012-11-30 13:16:00
4:36 AM,-2.2,-5.8,85,29.61,10.0,NE,3.5,-,N/A,,Clear,40,2012-11-30 13:36:00
4:56 AM,-5.8,-11.2,77,29.62,10.0,East,3.5,-,N/A,,Clear,80,2012-11-30 13:56:00
5:16 AM,-5.8,-11.2,77,29.63,10.0,ENE,5.8,-,N/A,,Clear,70,2012-11-30 14:16:00
5:36 AM,-5.8,-7.6,92,29.63,10.0,East,3.5,-,N/A,,Clear,90,2012-11-30 14:36:00
5:56 AM,-5.8,-11.2,77,29.64,10.0,ENE,4.6,-,N/A,,Clear,70,2012-11-30 14:56:00
6:16 AM,-5.8,-9.4,84,29.64,10.0,Calm,Calm,-,N/A,,Clear,0,2012-11-30 15:16:00
6:36 AM,-5.8,-9.4,84,29.64,10.0,East,5.8,-,N/A,,Clear,80,2012-11-30 15:36:00
6:56 AM,-7.6,-11.2,84,29.64,10.0,East,5.8,-,N/A,,Clear,80,2012-11-30 15:56:00
7:16 AM,-7.6,-9.4,92,29.64,10.0,East,3.5,-,N/A,,Clear,90,2012-11-30 16:16:00
7:36 AM,-7.6,-9.4,92,29.64,10.0,East,5.8,-,N/A,,Clear,80,2012-11-30 16:36:00
7:56 AM,-5.8,-9.4,84,29.64,10.0,East,3.5,-,N/A,,Clear,80,2012-11-30 16:56:00
8:16 AM,-7.6,-13.0,77,29.63,10.0,ENE,4.6,-,N/A,,Clear,70,2012-11-30 17:16:00
8:36 AM,-7.6,-11.2,84,29.64,10.0,ENE,4.6,-,N/A,,Clear,70,2012-11-30 17:36:00
8:56 AM,-7.6,-11.2,84,29.64,10.0,East,3.5,-,N/A,,Clear,90,2012-11-30 17:56:00
9:16 AM,-9.4,-14.8,77,29.64,10.0,Calm,Calm,-,N/A,,Clear,0,2012-11-30 18:16:00
9:36 AM,-7.6,-7.6,100,29.64,10.0,East,5.8,-,N/A,,Clear,90,2012-11-30 18:36:00
9:56 AM,-9.4,-16.6,71,29.64,10.0,East,5.8,-,N/A,,Clear,80,2012-11-30 18:56:00
10:16 AM,-7.6,-7.6,100,29.64,10.0,East,3.5,-,N/A,,Clear,90,2012-11-30 19:16:00
10:36 AM,-7.6,-13.0,77,29.64,10.0,ENE,5.8,-,N/A,,Clear,70,2012-11-30 19:36:00
10:56 AM,-5.8,-9.4,84,29.64,10.0,NE,3.5,-,N/A,,Clear,50,2012-11-30 19:56:00
11:16 AM,-5.8,-13.0,71,29.64,10.0,ENE,5.8,-,N/A,,Clear,70,2012-11-30 20:16:00
11:36 AM,-5.8,-5.8,100,29.64,10.0,East,4.6,-,N/A,,Clear,100,2012-11-30 20:36:00
11:56 AM,-2.2,-9.4,71,29.64,10.0,Calm,Calm,-,N/A,,Clear,0,2012-11-30 20:56:00
12:16 PM,-2.2,-7.6,78,29.64,10.0,ENE,4.6,-,N/A,,Clear,60,2012-11-30 21:16:00
12:36 PM,-0.4,-5.8,78,29.64,10.0,ENE,3.5,-,N/A,,Clear,70,2012-11-30 21:36:00
12:56 PM,1.4,-4.0,78,29.64,10.0,East,4.6,-,N/A,,Clear,80,2012-11-30 21:56:00
1:16 PM,3.2,-2.2,78,29.63,10.0,East,6.9,-,N/A,,Clear,80,2012-11-30 22:16:00
1:36 PM,5.0,-0.4,78,29.63,10.0,East,5.8,-,N/A,,Clear,80,2012-11-30 22:36:00
1:56 PM,6.8,-0.4,72,29.63,10.0,ENE,3.5,-,N/A,,Clear,60,2012-11-30 22:56:00
2:16 PM,6.8,-2.2,67,29.63,10.0,East,6.9,-,N/A,,Clear,80,2012-11-30 23:16:00
2:36 PM,6.8,-2.2,67,29.63,10.0,East,4.6,-,N/A,,Clear,90,2012-11-30 23:36:00
2:56 PM,8.6,6.8,92,29.63,10.0,East,5.8,-,N/A,,Clear,80,2012-11-30 23:56:00
3:16 PM,6.8,-0.4,72,29.63,10.0,East,5.8,-,N/A,,Clear,80,2012-12-01 00:16:00
3:36 PM,6.8,1.4,79,29.63,10.0,East,3.5,-,N/A,,Clear,80,2012-12-01 00:36:00
3:56 PM,3.2,-2.2,78,29.63,10.0,East,4.6,-,N/A,,Clear,90,2012-12-01 00:56:00
4:16 PM,6.8,3.2,85,29.62,10.0,NE,3.5,-,N/A,,Clear,50,2012-12-01 01:16:00
4:36 PM,1.4,-5.8,72,29.63,10.0,Calm,Calm,-,N/A,,Clear,0,2012-12-01 01:36:00
4:56 PM,3.2,3.2,100,29.63,10.0,ENE,3.5,-,N/A,,Clear,60,2012-12-01 01:56:00
5:16 PM,-0.4,-11.2,60,29.63,10.0,East,3.5,-,N/A,,Clear,90,2012-12-01 02:16:00
5:36 PM,1.4,1.4,100,29.63,10.0,East,4.6,-,N/A,,Clear,80,2012-12-01 02:36:00
5:56 PM,-2.2,-9999,N/A,29.63,10.0,Calm,Calm,-,N/A,,Clear,0,2012-12-01 02:56:00
6:16 PM,-2.2,-4.0,92,29.64,10.0,Calm,Calm,-,N/A,,Clear,0,2012-12-01 03:16:00
6:36 PM,-5.8,-9.4,84,29.64,10.0,Calm,Calm,-,N/A,,Clear,0,2012-12-01 03:36:00
6:56 PM,-5.8,-5.8,100,29.63,10.0,Calm,Calm,-,N/A,,Clear,0,2012-12-01 03:56:00
7:16 PM,-5.8,-9.4,84,29.63,10.0,Calm,Calm,-,N/A,,Clear,0,2012-12-01 04:16:00
7:36 PM,-2.2,-7.6,78,29.63,10.0,ENE,3.5,-,N/A,,Clear,70,2012-12-01 04:36:00
7:56 PM,-4.0,-11.2,71,29.63,10.0,Calm,Calm,-,N/A,,Clear,0,2012-12-01 04:56:00
8:16 PM,-7.6,-11.2,84,29.62,10.0,East,5.8,-,N/A,,Clear,90,2012-12-01 05:16:00
8:36 PM,-4.0,-4.0,100,29.61,10.0,East,6.9,-,N/A,,Clear,90,2012-12-01 05:36:00
8:56 PM,-4.0,-11.2,71,29.60,10.0,East,6.9,-,N/A,,Clear,90,2012-12-01 05:56:00
9:16 PM,-2.2,-2.2,100,29.61,10.0,East,3.5,-,N/A,,Clear,80,2012-12-01 06:16:00
9:36 PM,-2.2,-9.4,71,29.60,10.0,NE,4.6,-,N/A,,Clear,50,2012-12-01 06:36:00
9:56 PM,-2.2,-5.8,85,29.60,10.0,Calm,Calm,-,N/A,,Clear,0,2012-12-01 06:56:00
10:16 PM,-4.0,-11.2,71,29.60,10.0,Calm,Calm,-,N/A,,Clear,0,2012-12-01 07:16:00
10:36 PM,-5.8,-7.6,92,29.61,10.0,Calm,Calm,-,N/A,,Clear,0,2012-12-01 07:36:00
10:56 PM,-2.2,-2.2,100,29.61,10.0,ENE,4.6,-,N/A,,Clear,60,2012-12-01 07:56:00
11:16 PM,-4.0,-14.8,60,29.61,10.0,East,4.6,-,N/A,,Clear,80,2012-12-01 08:16:00
11:36 PM,-2.2,-2.2,100,29.61,10.0,East,3.5,-,N/A,,Clear,80,2012-12-01 08:36:00
11:56 PM,-5.8,-11.2,77,29.61,10.0,Calm,Calm,-,N/A,,Clear,0,2012-12-01 08:56:00